Regional Weather Roundup
Issued by NWS

Home | Current Version | Previous Version | Graphics & Text | Print | Product List | Glossary On
Versions: 1 2 3 4 5 6 7 8 9 10 11 12 13 14 15 16 17 18 19 20 21 22 23 24 25 26 27 28
000
ASUS45 KCYS 212110
RWRWY

WYOMING REGIONAL WEATHER ROUNDUP
NATIONAL WEATHER SERVICE CHEYENNE WY
300 PM MDT FRI JUL 21 2017

NOTE:  "FAIR" INDICATES FEW OR NO CLOUDS BELOW 12,000 FEET
WITH NO SIGNIFICANT WEATHER AND/OR OBSTRUCTIONS TO VISIBILITY.

WYZ001-212200-
YELLOWSTONE NATIONAL PARK

CITY           SKY/WX    TMP DP  RH WIND       PRES   REMARKS
LK YELLOWSTONE   N/A     72  24  16 VRB7      30.33S
W YELLOWSTONE  NOT AVBL

$$
WYZ002>013-054>058-071-098>099-212200-
NORTHERN WYOMING

CITY           SKY/WX    TMP DP  RH WIND       PRES   REMARKS
JACKSON        SUNNY     81  25  12 SW15      30.23F
CODY           FAIR      85  35  16 VRB3      30.07F HAZE
GREYBULL       FAIR      91  31  11 CALM      29.99F
WORLAND        FAIR      89  44  20 W6        30.00F
SHERIDAN       FAIR      90  35  14 VRB7      30.03F
BUFFALO        FAIR      83  34  17 CALM      30.10F
GILLETTE       FAIR      89  34  14 NE8G21    30.03F
HULETT         FAIR      88  34  14 N12G17    30.03F
NEWCASTLE      FAIR      88  37  16 NW13      30.02S

$$
WYZ014>020-022>026-101>103-212200-
CENTRAL WYOMING

CITY           SKY/WX    TMP DP  RH WIND       PRES   REMARKS
BIG PINEY      FAIR      80  44  27 W7        30.26F
PINEDALE       FAIR      79  34  19 NW9G18    30.28F
DUBOIS         FAIR      79  23  12 NW18G32   30.23F
LANDER         FAIR      85  47  26 CALM      30.09F
RIVERTON       FAIR      86  41  20 SE6       30.10F
CASPER         PTSUNNY   86  46  24 SE5       30.08F
DOUGLAS        FAIR      88  42  20 NW7G20    30.07F

$$
WYZ021-027>030-104>119-212200-
SOUTHERN WYOMING

CITY           SKY/WX    TMP DP  RH WIND       PRES   REMARKS
EVANSTON       FAIR      81  47  30 N9        30.25F
KEMMERER         N/A     82  30  15 NW12      30.28F
FORT BRIDGER   MOCLDY    83  53  35 S16G22    30.28F
ROCK SPRINGS   FAIR      81  45  28 NE5       30.24F
RAWLINS        PTSUNNY   86  48  26 VRB7G18   30.21F
SARATOGA       FAIR      81  45  28 NW7       30.23F
LARAMIE        LGT RAIN  71  55  56 NW20      30.25S
CHEYENNE       FAIR      85  39  19 N9        30.16S
TORRINGTON     FAIR      92  45  19 N7        29.99F
PINE BLUFFS    FAIR      91  43  18 N16       30.08F

$$




USA.gov is the U.S. government's official web portal to all federal, state and local government web resources and services.